ARCTURUS

Last updated on Thu Nov 21 2024 00:02:45 GMT+0000 (Coordinated Universal Time)

1 56371U 23060B 24325.07688414 -.00000115 00000+0 00000+0 0 9993 2 56371 1.2874 86.9323 0001718 236.9565 201.3892 1.00271855 5706
UTC large
Height (km)
Speed (km/s)
/
Latitude / Longitude
Inclination (degrees)
Orbital Period (minutes)
Azimuth
Elevation
Range (km)
Doppler Factor

Next 0 passes for location: London (51.5072 / 0.1276)

Sorry there are no passes over London.